Content
SEND FEEDBACK

Daily
Averages
Monthly
Summary
United States of America

FAYETTEVILLE, TENNESSEE


Home > North America > United States > Tennessee
Elevation: 700 feet     Latitude: 35 10N     Longitude: 086 33W

WEATHER
 
SELECT A DAY
Number of Records: 309,325;   Date Range: 4/22/02 - 12/16/14
 
SHARE

PRINT THIS DATA

[ ← Previous Day ]
WEATHER ALMANAC - MARCH 24, 2014
[ Next Day → ]
[ °C ]   °F
Weather ElementAverageHighLow
Temperature43.1 °F55.4 °F (3:35 pm)28.4 °F (6:55 am)
Dewpoint16.6 °F23 °F (12:35 am)3.2 °F (3:55 pm)
Humidity39.8 %75 % (7:35 am)13 % (3:35 pm)
Barometer30.15 in30.26 in (8:15 am)30.02 in (6:35 pm)
Wind Speed4.7 mph9.2 mph (1:35 pm)
Weather ElementAverage
Visibility9.9 mi
Wind DirectionSSW (192 °)

Weather ElementTotal
Precipitation---
Heating Degree Days23.1 (Base 65)
Averaged from 71 records on March 24, 2014
WEATHER CONDITIONS BREAKOUT
WIND DIRECTION BREAKOUT
WEATHER BY HOUR - MARCH 24, 2014
[ °C ]   °F
Local TimeTemperatureDewpointHumidityBarometerVisibilityWind DirectionWind SpeedGust SpeedPrecipitationEventsConditions
12:35 AM37.4 °F23.0 °F56 %30.25 in10.0 miNorth (10°)5.8 mphClear
12:55 AM37.4 °F23.0 °F56 %30.25 in10.0 miNNE (20°)4.6 mphClear
1:15 AM35.6 °F23.0 °F60 %30.24 in10.0 miNNE (20°)4.6 mphClear
1:35 AM35.6 °F21.2 °F56 %30.24 in10.0 miNNE (20°)5.8 mphClear
1:55 AM33.8 °F23.0 °F65 %30.24 in10.0 miNorth (10°)3.5 mphClear
2:15 AM33.8 °F21.2 °F60 %30.24 in10.0 miNorth (10°)3.5 mphClear
2:35 AM33.8 °F23.0 °F65 %30.24 in10.0 miCalmClear
2:55 AM33.8 °F21.2 °F60 %30.24 in10.0 miCalmClear
3:15 AM32.0 °F23.0 °F69 %30.23 in10.0 miNorth (10°)4.6 mphClear
3:35 AM32.0 °F21.2 °F64 %30.23 in10.0 miNorth (360°)6.9 mphClear
3:55 AM32.0 °F21.2 °F64 %30.23 in10.0 miNorth (360°)4.6 mphClear
4:15 AM32.0 °F21.2 °F64 %30.23 in10.0 miNorth (360°)6.9 mphClear
4:35 AM32.0 °F21.2 °F64 %30.23 in10.0 miNorth (10°)4.6 mphClear
4:55 AM32.0 °F21.2 °F64 %30.24 in10.0 miNorth (360°)3.5 mphClear
5:15 AM32.0 °F21.2 °F64 %30.23 in10.0 miNorth (360°)3.5 mphClear
5:35 AM32.0 °F21.2 °F64 %30.23 in10.0 miCalmClear
5:55 AM32.0 °F21.2 °F64 %30.24 in10.0 miCalmClear
6:15 AM30.2 °F21.2 °F69 %30.24 in10.0 miCalmClear
6:35 AM30.2 °F21.2 °F69 %30.24 in10.0 miCalmClear
6:55 AM28.4 °F19.4 °F69 %30.24 in10.0 miCalmClear
7:15 AM28.4 °F21.2 °F74 %30.25 in10.0 miNNW (340°)3.5 mphClear
7:35 AM30.2 °F23.0 °F75 %30.25 in10.0 miNNW (340°)5.8 mphClear
7:55 AM32.0 °F21.2 °F64 %30.25 in10.0 miNorth (360°)4.6 mphClear
8:15 AM33.8 °F21.2 °F60 %30.26 in10.0 miNNE (20°)4.6 mphClear
8:35 AM35.6 °F21.2 °F56 %30.26 in10.0 miNE (40°)3.5 mphClear
8:55 AM37.4 °F21.2 °F52 %30.25 in10.0 miNE (40°)3.5 mphClear
9:15 AM37.4 °F21.2 °F52 %30.25 in10.0 miCalmClear
9:35 AM39.2 °F21.2 °F49 %30.25 in10.0 miCalmClear
9:55 AM41.0 °F21.2 °F45 %30.25 in10.0 miEast (100°)4.6 mphClear
10:15 AM42.8 °F19.4 °F39 %30.25 in10.0 miSSE (160°)3.5 mphClear
10:35 AM42.8 °F21.2 °F42 %30.25 in10.0 miCalmClear
10:55 AM44.6 °F19.4 °F37 %30.25 in10.0 miNorth (360°)4.6 mphClear
11:15 AM46.4 °F19.4 °F34 %30.24 in10.0 miNorth (10°)4.6 mphClear
11:35 AM46.4 °F17.6 °F32 %30.22 in10.0 miNNW (340°)4.6 mphClear
11:55 AM48.2 °F17.6 °F30 %30.22 in10.0 miNNE (20°)6.9 mphClear
12:15 PM50.0 °F14.0 °F24 %30.20 in10.0 miNNE (20°)5.8 mphClear
12:35 PM50.0 °F14.0 °F24 %30.19 in1.8 miNorth (360°)5.8 mphHaze
12:55 PM51.8 °F14.0 °F22 %30.18 in10.0 miNorth (360°)5.8 mphClear
1:15 PM50.0 °F12.2 °F22 %30.17 in10.0 miNorth (10°)3.5 mphClear
1:35 PM51.8 °F8.6 °F18 %30.15 in10.0 miNNE (20°)9.2 mphClear
1:55 PM51.8 °F10.4 °F19 %30.14 in10.0 miNorth (10°)5.8 mphClear
2:15 PM53.6 °F8.6 °F16 %30.12 in10.0 miNorth (350°)3.5 mphClear
2:35 PM53.6 °F8.6 °F16 %30.11 in10.0 miNW (320°)3.5 mphClear
2:55 PM53.6 °F5.0 °F14 %30.09 in10.0 miCalmClear
3:15 PM53.6 °F5.0 °F14 %30.09 in10.0 miNNE (30°)3.5 mphClear
3:35 PM55.4 °F5.0 °F13 %30.08 in10.0 miNorth (10°)4.6 mphClear
3:55 PM53.6 °F3.2 °F13 %30.06 in10.0 miCalmClear
4:15 PM55.4 °F5.0 °F13 %30.05 in10.0 miNorth (350°)3.5 mphClear
4:35 PM55.4 °F6.8 °F14 %30.04 in10.0 miNorth (350°)8.1 mphClear
4:55 PM53.6 °F8.6 °F16 %30.03 in10.0 miNNW (340°)4.6 mphClear
5:15 PM53.6 °F8.6 °F16 %30.03 in10.0 miNNW (340°)9.2 mphClear
5:35 PM53.6 °F10.4 °F18 %30.03 in10.0 miNNW (340°)8.1 mphClear
5:55 PM53.6 °F10.4 °F18 %30.03 in10.0 miNorth (360°)6.9 mphClear
6:15 PM53.6 °F14.0 °F21 %30.03 in10.0 miNorth (350°)6.9 mphClear
6:35 PM51.8 °F12.2 °F21 %30.02 in10.0 miNorth (350°)6.9 mphClear
6:55 PM51.8 °F14.0 °F22 %30.02 in10.0 miNorth (360°)6.9 mphClear
7:15 PM50.0 °F17.6 °F28 %30.02 in10.0 miNorth (350°)9.2 mphScattered Clouds
7:35 PM50.0 °F17.6 °F28 %30.02 in10.0 miNorth (350°)8.1 mphClear
7:55 PM50.0 °F14.0 °F24 %30.02 in10.0 miNorth (360°)6.9 mphClear
8:15 PM48.2 °F17.6 °F30 %30.03 in10.0 miNorth (360°)5.8 mphClear
8:35 PM46.4 °F21.2 °F37 %30.03 in10.0 miNorth (350°)4.6 mphClear
8:55 PM46.4 °F19.4 °F34 %30.03 in10.0 miNorth (360°)3.5 mphClear
9:15 PM46.4 °F19.4 °F34 %30.04 in10.0 miNorth (350°)5.8 mphClear
9:35 PM44.6 °F21.2 °F39 %30.04 in10.0 miNorth (350°)9.2 mphClear
9:55 PM46.4 °F15.8 °F29 %30.05 in10.0 miNNW (340°)6.9 mphClear
10:15 PM46.4 °F14.0 °F27 %30.04 in10.0 miNorth (360°)8.1 mphClear
10:35 PM46.4 °F14.0 °F27 %30.04 in10.0 miNorth (360°)9.2 mphClear
10:55 PM46.4 °F12.2 °F25 %30.04 in10.0 miNorth (350°)8.1 mphClear
11:15 PM44.6 °F12.2 °F27 %30.05 in10.0 miNorth (360°)9.2 mphClear
11:35 PM44.6 °F12.2 °F27 %30.03 in10.0 miCalmScattered Clouds
11:55 PM44.6 °F12.2 °F27 %30.04 in10.0 miNorth (360°)6.9 mphClear
Hourly data recorded from KMDQ, located miles away from Fayetteville, Tennessee







STORIES FROM OUR PARTNERS